RH
12 12 13 13 13 14 13 13 15 17 16 15 14 12 11 10 9 8 8 7 7 8 8 10 10 16 20 18 22 22 21 21 24 33 40 45 50 51 44 37 33 29 30 28 26 27 24 19 18 18 18 19 20 20 20 21 21 20 21 22 23 24 25 23 21 20 20 19 20 22 25 28 29 28 25 23 24 23 21 19 17 16 15 12 11 9 8 7 6 7 7 8 8 9 11 12 11
9 10 10 10 11 12 12 13 16 15 13 12 11 10 10 9 8 7 7 8 7 8 11 14 17 19 16 15 15 18 34 29 20 29 33 37 44 46 46 40 35 33 32 27 27 29 26 21 18 18 19 19 20 20 19 21 21 21 21 22 23 25 26 25 22 21 20 20 20 22 25 27 28 28 25 23 24 23 21 20 18 17 16 14 12 10 9 7 7 7 7 8 8 8 8 8 7
6 6 7 7 7 8 8 12 16 14 12 11 10 9 9 8 7 7 7 7 7 11 18 19 19 18 14 15 15 24 47 40 26 34 37 38 34 36 45 39 34 36 33 27 28 31 29 22 18 18 18 19 20 19 19 20 21 21 21 22 24 25 27 26 23 21 20 20 20 22 25 27 28 28 25 22 23 23 22 20 19 19 17 16 13 11 10 8 7 7 7 7 7 7 6 6 6
5 4 4 4 6 9 8 10 13 13 12 10 10 9 8 8 7 7 7 8 8 12 17 17 17 17 17 21 25 35 47 38 32 40 39 39 35 32 39 37 35 37 32 27 30 34 33 25 19 18 18 19 20 19 19 19 20 21 22 23 25 27 28 27 24 22 20 20 20 21 25 27 28 28 24 22 23 23 22 21 20 19 18 17 15 13 11 9 8 6 6 5 6 5 5 5 5
5 4 4 3 8 14 13 12 13 12 11 10 10 9 8 8 6 7 8 10 10 11 12 13 14 16 26 35 35 41 56 53 40 39 40 40 39 34 35 35 35 37 32 28 31 36 36 28 19 18 18 19 19 19 18 18 21 21 22 24 26 28 29 29 25 22 21 20 20 21 24 27 28 27 23 21 23 23 23 22 21 20 19 18 16 15 13 11 9 7 6 5 5 5 5 6 6
5 4 4 2 8 14 14 13 14 12 11 10 10 9 8 7 6 7 9 11 10 10 10 10 14 15 30 45 42 39 52 58 40 33 38 40 37 33 35 36 34 35 34 31 32 36 38 33 21 17 18 18 19 19 18 19 21 22 24 26 28 30 31 29 26 22 21 20 20 21 24 26 28 26 22 21 21 23 24 23 22 21 20 19 17 16 15 14 11 10 9 8 7 7 8 9 10
5 6 6 5 7 10 12 12 11 12 11 10 10 9 8 7 6 8 10 10 9 10 9 10 15 17 28 42 47 46 47 46 35 28 29 36 40 31 34 39 33 31 34 34 32 35 39 36 24 18 18 17 19 19 18 20 22 24 26 28 31 32 32 30 26 22 21 21 20 21 23 26 28 26 21 20 21 21 23 23 23 21 21 20 19 18 17 17 15 14 13 12 11 11 12 13 15
5 9 14 13 12 10 11 12 10 11 11 10 9 8 8 7 7 9 10 9 8 10 13 20 26 26 33 41 48 52 49 44 36 29 26 36 46 33 34 41 30 26 32 33 32 34 38 38 27 18 18 17 18 19 19 20 23 26 29 31 33 34 33 30 26 22 21 21 20 21 23 26 27 25 20 20 20 21 23 23 23 22 21 20 20 19 19 19 18 18 17 16 15 16 17 18 20
5 8 16 17 14 12 10 9 9 9 10 10 9 8 8 7 7 9 11 10 8 9 14 25 35 34 35 40 47 51 49 47 40 32 29 40 48 37 37 40 28 25 30 32 34 35 37 38 29 19 18 18 18 20 20 22 25 29 32 34 35 35 34 30 26 23 22 21 21 21 23 25 27 25 20 19 20 20 22 23 23 21 21 21 20 20 20 20 20 20 20 20 19 20 21 23 24
7 8 15 18 14 13 10 9 8 7 8 8 9 8 8 7 7 9 10 9 9 9 8 12 21 25 34 44 48 50 47 44 40 32 32 41 47 42 39 35 25 24 29 33 36 36 38 38 29 20 18 18 19 20 21 24 29 33 35 37 37 37 34 31 26 23 22 22 21 21 23 25 27 26 20 18 20 19 20 21 22 21 21 21 21 20 21 21 21 22 22 22 22 23 24 26 27
15 13 13 16 14 13 12 10 8 7 7 6 7 7 7 7 6 7 8 9 9 9 7 6 9 10 22 44 51 49 45 40 37 30 30 37 43 46 40 30 24 23 27 34 38 37 39 39 29 21 18 19 20 20 23 27 33 36 38 39 38 37 35 30 25 24 23 22 21 21 23 25 26 25 20 17 19 19 19 19 20 21 21 21 21 20 21 21 22 22 22 23 23 24 25 27 28
21 19 14 14 13 13 12 10 8 6 6 5 6 7 7 6 6 8 9 9 8 8 7 6 7 7 16 40 52 46 41 39 34 28 28 34 42 46 37 28 24 23 28 36 41 41 42 40 29 22 20 20 21 23 27 32 37 39 40 41 40 38 35 29 25 24 24 23 22 21 22 25 27 25 19 16 18 19 19 19 19 20 21 21 21 21 21 21 22 22 23 23 24 24 25 26 27
21 20 15 14 11 11 11 10 8 6 5 5 5 6 7 5 7 9 9 8 7 7 6 7 5 9 23 41 52 43 39 41 34 29 30 36 43 43 32 25 24 24 31 36 40 44 45 38 28 23 22 22 25 28 32 37 40 41 42 42 41 39 34 29 26 25 25 24 23 22 22 24 27 25 20 15 17 19 20 20 18 18 20 21 21 21 21 21 22 22 23 23 24 24 24 25 26
19 20 16 14 13 11 10 9 8 7 5 5 4 5 6 5 7 8 9 6 7 6 6 9 5 9 21 33 47 44 41 41 36 37 37 39 41 36 28 23 24 26 31 35 38 44 45 36 28 25 24 27 31 33 37 41 43 43 44 44 42 39 34 29 26 26 25 25 25 24 22 24 27 25 20 15 16 18 19 21 20 19 18 19 20 21 21 22 22 22 22 23 23 23 24 24 25
18 20 17 14 14 12 11 10 8 7 5 5 5 5 6 6 8 8 8 7 7 9 8 10 9 12 21 26 37 41 42 39 36 42 39 34 32 27 26 25 24 27 30 35 38 43 43 34 29 27 28 33 37 40 42 44 45 45 46 46 43 40 35 29 27 26 26 27 27 26 23 24 26 25 22 16 15 17 18 20 21 20 19 19 20 21 21 22 22 22 22 22 22 23 24 24 24
20 19 18 15 13 13 12 11 9 8 5 5 6 7 8 8 9 8 8 9 7 8 9 12 11 12 22 32 37 37 41 41 36 39 34 28 27 26 30 30 25 27 30 35 40 43 41 35 32 32 34 38 42 45 45 46 45 46 48 47 44 40 34 29 28 27 28 29 29 28 26 25 25 26 26 19 15 17 18 18 20 21 21 20 19 20 20 21 21 22 23 23 23 23 23 24 24
24 21 18 16 13 12 12 12 10 8 6 6 7 8 9 9 8 10 10 10 9 10 12 16 16 12 25 42 42 36 39 42 38 35 31 28 28 27 31 29 24 27 32 35 39 42 41 38 36 37 41 44 45 46 45 46 46 48 50 48 44 40 34 31 29 29 29 30 31 31 29 28 28 28 27 21 16 16 16 17 18 19 20 21 21 20 20 20 21 21 22 23 23 23 23 23 24
25 23 18 16 14 12 11 11 10 8 7 6 7 9 9 8 8 11 13 11 12 16 21 25 21 18 32 47 45 39 39 40 39 35 31 29 28 27 28 25 23 29 33 34 37 42 43 42 41 42 44 44 45 44 43 44 47 50 52 49 46 41 36 33 30 30 31 32 33 32 33 33 32 32 30 25 21 18 18 18 18 18 18 19 20 20 20 21 21 21 22 22 22 23 23 23 23
24 22 18 17 15 13 11 11 11 9 8 7 8 11 10 9 9 14 21 23 23 24 29 31 28 26 32 42 45 44 42 40 39 36 32 30 28 26 26 25 28 33 33 33 35 39 43 46 45 41 43 43 42 41 40 43 49 53 53 50 48 43 38 34 32 31 32 32 33 36 43 44 39 37 37 35 31 26 24 23 20 18 16 18 19 20 21 20 21 21 21 21 22 23 22 23 23
22 22 19 17 16 13 12 11 11 9 8 8 10 14 13 12 10 13 22 30 32 32 30 31 34 34 32 37 41 40 41 42 39 35 33 32 29 26 27 29 31 33 33 34 36 38 40 41 38 35 38 40 38 38 39 44 51 54 54 51 48 44 39 35 34 33 36 38 38 44 51 54 50 46 47 45 41 39 38 37 35 26 19 17 16 17 19 20 21 21 21 21 22 22 22 23 22
20 20 19 17 15 12 11 11 10 9 9 10 11 14 14 14 13 12 14 19 26 31 30 30 34 33 33 39 39 36 40 44 41 36 33 34 33 32 33 36 38 39 38 38 39 38 34 30 29 29 32 34 36 37 40 47 52 55 55 52 49 45 39 37 35 35 47 53 53 57 57 57 57 57 58 54 52 56 57 57 56 49 41 34 29 24 19 18 18 19 20 21 21 21 23 23 22
17 19 18 16 14 11 10 10 9 10 12 12 11 11 12 14 14 12 12 15 22 29 28 27 30 32 37 40 37 39 46 45 42 37 33 35 38 38 40 44 47 47 44 41 40 38 33 30 32 33 30 31 37 39 43 50 54 56 57 53 50 47 41 39 36 37 51 58 57 62 61 59 59 60 65 63 60 63 64 64 64 63 61 59 57 51 43 37 33 30 26 24 24 24 24 23 25
15 17 17 15 14 12 10 9 10 13 14 14 13 11 13 14 13 13 14 16 19 23 27 25 24 30 38 41 35 40 48 45 41 36 30 34 39 39 42 45 45 43 41 40 40 40 40 39 39 40 34 34 38 40 46 52 55 57 58 55 51 49 45 42 40 44 55 58 58 62 63 62 60 60 64 64 59 60 61 60 61 63 64 64 65 64 63 61 58 53 46 42 42 42 39 35 37
14 15 15 15 14 13 11 11 12 16 17 16 15 13 14 13 10 12 14 15 15 16 24 32 36 37 39 41 37 40 48 44 38 34 34 41 45 45 47 47 43 40 38 38 40 40 42 44 43 42 39 37 38 41 47 51 55 57 57 57 53 50 51 51 52 57 63 62 59 62 65 66 64 62 63 61 57 54 51 49 52 55 57 57 57 58 58 60 63 62 59 59 59 60 59 56 54
14 15 14 15 14 13 12 11 12 17 20 18 18 15 13 12 11 14 14 14 14 14 21 39 58 61 48 41 40 43 48 44 39 41 47 54 55 54 54 49 42 40 38 38 39 38 40 44 44 42 42 39 37 42 48 50 54 56 56 57 54 52 56 61 62 66 68 62 58 62 68 69 65 63 62 58 54 50 47 45 45 47 49 52 53 54 55 54 57 59 58 60 61 63 65 67 65
13 13 14 15 14 14 12 12 13 16 20 19 18 17 14 13 14 15 15 13 13 14 18 37 63 69 53 44 39 37 43 45 43 45 52 62 63 61 58 47 37 39 41 40 38 37 41 43 39 38 42 38 35 44 50 50 54 56 57 58 55 55 62 67 67 69 66 60 61 67 70 71 65 60 56 52 48 48 49 48 46 46 48 52 53 53 55 54 53 52 53 55 57 56 58 61 64
12 12 13 14 14 15 14 14 15 15 18 18 17 17 15 14 14 14 13 13 14 14 18 33 57 64 53 47 40 34 39 44 45 51 63 74 74 66 56 43 35 37 38 38 34 32 38 41 37 37 41 38 38 49 53 51 55 58 59 60 56 56 62 65 63 66 65 62 67 72 73 69 62 56 51 45 44 46 50 52 51 48 50 53 51 49 52 53 49 47 48 51 52 51 51 52 56
13 12 12 13 13 13 14 15 15 16 17 17 17 16 15 14 13 13 12 13 13 14 16 24 45 60 57 50 40 33 39 47 53 61 69 75 75 65 52 38 31 31 31 32 30 28 35 38 38 39 39 39 43 50 52 52 57 61 61 61 59 58 60 57 54 60 65 66 70 74 72 64 56 53 47 41 41 46 51 51 47 45 51 51 44 42 44 44 42 40 42 45 47 47 46 46 48
13 13 12 14 15 14 14 14 14 17 18 16 17 16 15 13 11 12 12 12 13 14 16 18 33 53 57 51 43 37 41 52 59 60 61 68 71 65 53 38 28 25 26 29 26 28 34 34 38 41 38 43 49 51 54 56 61 65 65 64 64 64 61 56 58 63 66 70 73 73 68 58 53 48 41 39 44 52 50 40 35 39 44 39 31 30 31 32 36 37 37 41 45 48 50 48 48
14 13 13 14 15 15 15 15 13 15 17 16 15 16 14 13 12 12 12 13 15 14 14 22 38 51 52 46 44 45 48 55 58 58 58 65 72 67 55 41 29 23 24 26 22 27 34 34 40 41 39 48 53 53 57 62 66 69 70 71 71 69 66 65 67 68 70 74 73 68 61 54 47 39 36 39 44 48 41 28 27 32 32 26 22 23 23 27 33 33 33 36 41 47 53 53 51
14 13 13 13 14 13 14 14 13 13 15 15 15 15 14 13 11 12 12 13 18 20 18 30 52 65 60 45 41 50 56 58 63 65 60 63 70 64 52 40 28 23 23 22 21 27 34 37 42 40 44 54 55 58 64 67 72 76 78 79 77 74 72 72 72 73 76 74 68 61 52 44 37 33 34 37 34 31 26 20 21 23 22 20 21 24 28 31 34 35 36 37 41 46 50 51 50
14 14 13 13 13 13 13 12 12 12 13 15 16 15 14 13 10 10 12 11 19 33 35 38 55 71 67 48 42 52 59 63 69 72 67 67 73 62 47 36 26 23 23 22 24 30 35 38 41 44 53 59 58 65 70 72 79 83 85 85 84 81 78 78 77 79 77 69 63 55 43 34 31 31 30 28 25 22 20 20 20 20 20 21 25 30 34 37 39 42 43 43 44 44 44 44 44
13 14 13 13 13 13 12 10 11 12 12 13 14 15 12 11 10 9 12 10 14 35 45 44 56 71 70 56 49 53 61 67 68 68 65 70 72 56 39 32 27 24 23 25 27 32 38 36 39 51 60 64 67 72 75 79 87 87 86 89 89 87 85 83 83 79 72 64 58 47 34 28 27 26 23 22 22 22 22 21 21 21 22 24 27 31 32 34 35 36 37 36 34 32 32 35 38
13 13 13 13 13 12 11 9 9 10 12 12 12 13 11 11 11 8 11 11 13 33 45 45 57 70 69 62 54 52 61 65 60 58 60 65 61 46 42 41 34 27 25 28 31 36 41 37 44 60 66 69 74 78 81 86 90 86 85 90 92 91 90 87 83 73 63 59 51 38 27 23 22 21 21 23 23 25 25 24 24 26 27 28 28 29 28 26 24 25 27 26 25 25 24 27 33
13 13 13 13 12 11 10 8 7 8 11 12 10 11 11 10 10 8 10 10 13 31 42 42 55 65 65 69 66 60 62 61 57 57 58 58 51 48 59 59 43 31 27 30 33 38 42 42 54 66 71 79 84 87 91 92 90 90 91 91 91 91 89 82 74 63 56 54 43 29 22 19 20 21 22 24 25 27 28 27 28 30 31 29 26 25 24 24 22 21 23 25 25 28 31 34 41
14 13 13 13 13 10 10 8 6 8 11 12 10 9 11 10 8 8 8 9 17 31 37 39 51 58 61 73 75 66 63 59 56 56 56 58 58 58 67 71 56 34 28 33 34 38 44 52 64 74 81 85 84 84 83 78 75 78 80 82 89 90 82 72 63 55 51 47 35 23 20 19 20 21 22 24 27 28 28 28 30 32 33 31 29 28 27 27 27 27 29 31 32 36 43 48 51
14 13 12 12 12 10 9 8 7 9 11 12 11 9 10 10 8 8 9 15 26 33 36 39 49 58 62 69 67 58 58 55 56 63 68 78 82 75 74 82 72 44 31 34 36 44 54 60 65 67 66 59 53 55 57 56 57 60 59 63 78 83 75 67 58 51 45 37 29 22 20 21 21 21 22 25 28 29 29 29 31 33 33 32 31 31 31 29 29 33 34 35 38 40 45 49 50
14 12 11 10 11 10 8 8 7 9 12 12 12 10 9 10 9 8 11 20 31 36 38 40 47 56 58 58 54 50 54 58 68 78 83 92 96 89 85 89 88 72 57 51 51 58 56 51 54 56 53 48 47 53 60 64 63 63 59 53 60 63 62 65 59 52 45 32 24 22 20 21 22 22 23 26 29 29 31 32 34 35 32 35 36 33 37 39 32 29 31 36 42 40 39 42 44
15 13 11 10 10 10 9 8 6 7 12 12 12 10 9 9 10 9 9 17 30 36 37 39 44 48 47 49 51 55 64 72 81 86 89 92 87 86 88 89 95 89 79 78 77 72 56 46 56 61 57 54 56 64 74 78 71 66 60 52 53 52 52 61 61 54 45 30 21 21 22 22 23 24 25 28 29 30 33 35 36 34 28 36 44 37 36 39 29 23 31 40 42 41 40 38 43
16 13 12 10 9 10 9 8 7 7 10 12 11 9 9 8 9 11 8 13 28 36 41 45 44 43 44 49 54 62 74 80 80 83 90 91 82 82 84 86 91 76 68 79 74 63 57 53 58 58 56 59 60 63 67 69 70 67 58 52 54 52 48 53 60 55 39 25 21 22 23 23 23 26 28 30 30 31 35 34 33 29 23 27 33 29 24 25 22 22 28 31 28 33 34 31 41
16 14 12 10 10 10 9 8 9 8 10 11 10 8 9 9 9 11 9 10 22 36 48 50 44 46 48 51 58 68 78 79 77 76 78 83 86 85 83 85 83 62 61 75 61 49 54 55 56 56 58 64 62 58 55 56 64 64 58 54 53 53 48 47 57 55 36 26 23 22 25 26 26 28 30 32 32 34 33 29 25 23 22 21 21 21 20 21 23 24 24 20 15 18 20 17 23
16 15 12 11 10 10 8 8 9 8 9 11 11 10 10 10 9 10 10 9 14 31 46 44 44 52 53 56 60 63 69 73 78 78 70 76 83 79 83 90 79 62 67 72 56 51 58 60 62 60 60 61 56 55 56 58 61 59 59 58 53 53 49 47 58 54 38 31 27 26 29 29 29 30 32 33 34 33 28 23 21 20 20 20 19 19 20 23 25 23 19 16 14 13 13 11 12
17 15 12 11 11 10 9 8 8 7 10 12 11 11 11 10 10 9 10 10 10 22 36 38 44 50 52 66 71 62 59 56 58 65 67 78 82 77 88 90 72 64 64 62 58 62 68 69 66 60 58 58 56 58 59 58 59 58 59 57 54 53 45 45 58 52 40 37 32 31 33 33 33 33 33 33 30 26 23 20 20 19 19 18 18 20 23 25 22 18 15 13 14 13 12 11 9
16 14 13 12 12 11 9 8 8 7 10 12 11 11 10 9 10 10 10 11 9 15 32 40 43 46 50 65 73 67 60 46 40 49 61 76 78 80 93 83 65 62 57 59 67 63 57 57 54 52 56 59 59 59 56 54 57 59 57 53 52 49 42 46 54 47 42 42 37 34 35 36 36 33 32 32 26 22 21 21 19 19 19 18 20 22 23 21 17 15 14 12 12 12 11 11 9
15 14 14 13 13 11 8 7 8 7 9 12 11 10 10 9 10 11 9 12 10 10 27 42 45 49 52 54 55 55 54 49 49 55 63 67 64 71 81 72 66 68 59 60 63 52 45 46 48 53 58 60 57 54 53 51 53 57 55 50 48 44 45 55 54 44 41 40 37 35 32 33 34 31 31 30 26 23 21 22 21 20 19 19 21 21 19 17 15 14 12 11 10 9 9 9 8
16 15 14 13 14 12 10 9 8 7 10 13 12 8 9 9 9 12 11 11 12 10 22 42 55 59 57 54 50 48 52 56 59 62 64 59 52 56 63 61 65 70 64 61 57 50 47 45 48 57 60 57 53 52 50 47 50 55 53 48 47 46 50 58 53 42 37 34 34 32 28 30 31 29 29 27 24 22 21 21 19 18 19 20 20 18 16 15 13 12 11 10 9 8 9 9 9
17 15 13 13 14 13 11 11 8 10 14 14 12 9 9 10 8 10 12 11 12 11 17 38 59 64 60 60 60 55 59 62 60 63 64 55 47 48 49 48 51 61 66 61 54 53 50 45 48 56 58 54 52 50 46 46 50 53 50 45 48 52 51 55 53 43 37 33 31 31 31 31 28 27 28 26 23 21 19 18 17 18 19 19 18 16 15 14 12 11 10 10 9 9 9 9 10
16 14 13 11 12 12 11 11 11 15 17 12 11 10 9 10 9 9 9 10 11 12 18 31 48 59 61 64 65 59 59 59 57 61 63 55 46 43 42 37 38 53 64 58 50 51 49 46 48 50 51 50 50 49 46 48 50 50 50 46 50 56 54 58 59 47 38 34 32 32 31 28 27 30 31 26 22 20 18 17 17 19 18 17 16 14 14 13 11 11 10 10 10 9 10 9 10
16 13 13 11 11 15 15 13 14 16 15 11 11 11 9 9 10 10 8 8 9 10 18 27 38 49 54 55 54 51 50 50 51 53 54 51 46 42 36 30 32 43 49 43 43 48 47 46 48 45 45 47 49 48 45 45 47 49 49 45 52 57 56 63 61 42 33 32 31 29 26 29 34 36 31 23 20 19 17 17 18 18 17 16 15 14 13 12 12 12 11 11 10 10 10 9 10
15 13 13 11 12 20 22 17 15 16 14 11 10 10 10 10 10 11 9 9 10 10 16 28 38 42 42 43 42 42 44 46 47 46 45 47 49 46 36 26 24 26 30 36 44 50 48 46 46 43 41 43 44 43 43 45 48 50 48 47 54 55 56 68 61 38 31 32 30 27 27 35 40 35 26 21 20 18 16 18 18 17 17 16 15 14 14 13 13 13 13 12 12 12 11 10 11
14 13 12 10 11 18 20 15 16 17 13 12 12 11 11 9 9 11 12 11 10 11 13 22 39 46 42 42 41 42 45 46 49 48 46 51 53 50 43 32 26 28 36 46 51 51 49 47 46 43 39 38 38 39 44 49 51 53 54 55 57 51 54 68 62 41 33 30 27 26 31 39 37 29 23 20 19 18 17 18 18 17 16 16 16 15 14 14 14 13 13 13 13 12 11 11 11
13 12 11 11 11 12 14 13 13 15 15 14 12 12 10 8 10 11 12 12 10 12 13 16 33 47 46 43 42 43 45 43 46 47 47 50 51 50 48 41 38 42 47 51 52 51 48 46 44 41 39 36 34 38 45 50 50 51 52 55 55 51 52 61 56 39 29 25 25 28 34 38 34 26 21 20 19 18 18 18 18 17 17 16 16 16 15 15 14 14 14 13 14 13 12 12 11
12 12 10 11 11 11 12 14 13 13 19 18 11 11 11 10 13 12 10 12 10 11 17 18 27 41 46 46 44 41 42 41 42 46 45 43 41 43 49 48 46 45 46 49 51 51 48 45 41 38 38 36 32 35 43 48 48 46 46 47 47 44 43 45 42 31 25 25 27 30 34 36 32 25 21 21 20 18 19 19 18 17 17 18 18 17 17 16 15 15 15 15 15 14 13 13 13
12 12 11 10 12 12 12 14 16 17 20 18 11 10 11 10 12 11 9 12 10 11 21 23 28 41 46 45 44 40 38 37 38 45 49 44 36 34 43 51 49 43 43 49 50 49 48 45 42 39 36 32 32 36 41 43 42 40 38 34 33 33 32 32 30 27 27 28 28 30 34 35 31 26 22 21 20 19 19 18 18 18 19 19 19 18 18 17 17 17 17 17 16 15 14 14 16
13 12 10 10 13 13 12 14 18 20 21 19 14 10 11 11 11 10 9 11 11 13 21 25 31 43 45 41 42 40 39 37 35 38 46 47 39 33 39 49 49 43 44 49 50 50 49 45 42 39 33 29 32 36 39 41 38 36 33 29 30 32 30 27 27 28 27 27 28 31 34 33 29 26 23 22 20 20 19 18 18 19 20 21 20 20 19 18 19 20 20 19 17 17 16 14 18
16 13 9 10 13 13 11 12 14 17 20 20 17 13 12 11 10 11 12 14 14 15 25 36 38 39 39 40 42 41 42 42 39 37 42 47 42 36 41 49 47 44 45 49 51 51 50 48 46 41 35 32 33 33 35 38 36 35 35 37 38 35 30 28 28 28 27 26 29 33 33 31 28 26 24 22 21 20 19 18 19 20 21 21 21 21 20 20 21 21 21 21 20 19 17 17 18
16 13 10 9 12 12 10 11 11 13 17 19 20 19 14 11 12 11 11 15 17 16 26 38 38 31 30 33 35 36 42 45 42 39 38 42 44 41 45 50 47 47 48 50 52 52 51 51 50 46 42 40 38 36 36 36 34 35 40 43 42 36 31 30 29 27 27 27 30 32 32 30 28 27 25 23 21 20 19 19 20 21 22 21 22 22 21 21 21 21 21 21 21 20 18 19 20
13 11 12 12 12 10 11 14 12 11 14 16 19 20 14 11 14 14 11 14 18 20 24 28 31 35 33 30 30 33 36 37 36 34 32 36 45 48 48 49 48 49 50 48 51 53 53 54 54 51 48 47 47 44 41 37 33 36 43 45 43 38 33 31 29 28 28 30 32 32 30 29 28 27 26 23 21 20 19 19 20 22 22 22 22 23 23 23 22 22 23 22 22 21 19 21 23
Wind_Speed
34 34 32 30 28 26 24 20 16 14 17 22 23 24 24 23 23 23 24 22 19 16 15 15 14 10 7 9 9 9 15 16 13 8 10 11 7 10 12 9 8 9 9 11 13 15 17 17 18 17 16 14 12 11 9 8 6 5 3 2 2 3 4 5 6 6 6 6 6 7 7 8 9 9 10 10 10 11 12 13 14 14 14 14 14 13 12 11 11 10 9 8 7 7 7 7 7
34 34 32 30 29 27 23 17 16 16 19 24 24 23 23 22 24 24 24 21 20 18 12 10 9 9 12 16 12 9 13 14 14 11 11 14 13 15 12 8 9 11 11 11 12 15 17 18 18 17 16 14 13 11 10 8 7 5 4 2 2 3 3 4 5 5 6 6 6 6 7 7 8 9 9 9 10 11 12 13 13 14 14 14 14 13 13 12 11 10 10 8 8 8 8 8 8
31 31 29 28 27 27 23 17 18 19 21 25 24 23 22 21 23 22 22 22 21 15 9 10 8 8 10 12 10 10 8 8 12 12 10 14 17 19 15 10 8 12 13 11 11 14 17 18 18 18 17 15 13 12 10 8 7 6 4 3 2 2 3 3 4 4 5 5 6 6 6 7 8 8 8 8 9 10 11 12 13 13 14 14 14 13 13 12 12 11 10 9 9 9 9 9 10
26 26 25 25 21 22 22 21 22 22 24 24 23 22 21 22 24 24 21 20 17 10 7 5 6 8 10 10 8 9 13 13 13 13 12 15 19 20 18 12 9 14 15 11 11 13 16 18 18 18 17 15 14 12 10 9 8 6 4 3 2 2 2 2 3 4 4 5 5 5 5 6 7 7 7 7 8 10 11 12 12 13 13 14 13 13 13 13 13 12 11 11 11 11 11 12 12
21 21 21 21 15 14 17 20 21 24 28 25 24 22 21 25 26 21 12 11 13 7 6 5 8 9 11 13 11 10 12 12 13 15 14 15 18 19 17 13 11 14 14 12 11 12 15 17 18 18 17 16 14 12 10 9 8 6 5 3 2 2 1 1 2 3 4 5 4 4 5 5 6 6 6 7 8 9 10 11 12 12 13 13 13 13 12 13 13 13 12 12 13 13 13 13 13
18 18 18 19 17 15 16 21 22 25 30 26 26 24 24 27 22 16 11 10 12 14 17 15 13 11 10 12 15 14 13 13 15 15 14 16 18 18 17 14 12 13 13 13 12 12 15 17 19 18 18 16 14 12 11 10 8 7 5 4 3 2 1 1 2 3 4 4 4 4 4 5 5 6 6 6 7 8 10 10 11 11 12 13 13 13 12 13 13 13 13 12 13 13 13 14 14
16 14 14 16 18 19 20 24 25 26 27 27 29 26 27 28 19 17 17 17 17 18 21 18 14 12 12 12 13 16 16 17 17 14 12 16 18 19 18 15 13 12 13 14 13 13 15 17 19 19 18 16 15 13 11 10 9 7 6 4 3 3 2 2 2 3 4 4 3 3 3 4 5 5 5 5 6 8 9 9 10 11 12 12 12 12 12 12 13 13 13 13 13 13 13 14 14
16 12 10 13 15 19 22 25 28 28 26 26 28 26 28 28 19 15 11 11 11 10 10 9 9 11 11 12 13 16 16 15 16 15 11 13 16 17 17 16 13 11 12 15 14 14 15 17 19 19 18 16 15 13 12 11 10 8 6 5 4 3 3 2 2 3 3 3 3 3 3 4 4 4 4 5 6 7 8 9 9 10 11 11 12 12 11 12 12 13 12 12 13 13 13 13 13
15 14 13 15 16 18 22 25 28 29 29 28 28 26 27 27 21 14 9 9 11 8 7 5 7 9 12 15 16 18 18 14 15 17 11 12 14 14 18 16 12 10 12 14 14 14 15 17 19 20 19 17 16 14 13 11 10 9 7 6 5 4 4 3 3 3 4 3 3 3 3 4 4 3 3 4 5 6 7 8 8 9 10 10 11 11 11 11 12 12 12 12 12 12 12 12 12
13 15 14 15 18 21 23 24 26 27 29 30 31 30 28 26 23 19 12 12 13 13 13 11 11 9 11 17 18 19 20 16 15 15 13 13 14 15 19 15 11 11 12 13 14 14 14 17 20 20 19 18 16 14 13 12 10 9 8 7 6 5 4 4 4 4 4 4 3 3 3 3 3 3 3 3 5 6 6 7 8 8 9 9 10 10 10 10 10 11 11 11 11 11 11 11 11
11 14 15 16 19 22 23 23 25 25 25 28 30 31 31 31 28 24 18 14 13 14 15 13 15 12 13 19 18 18 19 16 14 14 14 15 15 16 17 13 11 13 13 13 13 13 14 17 20 20 19 18 17 15 13 12 11 10 9 8 7 6 6 5 4 4 4 4 4 3 4 3 3 3 3 3 4 5 5 6 6 7 7 8 9 9 8 8 9 10 10 10 10 10 9 9 9
14 15 16 19 21 22 22 22 24 24 25 25 27 30 33 34 28 22 19 16 14 16 17 15 15 12 16 22 19 17 18 15 15 15 17 17 17 16 15 13 12 13 13 12 12 13 15 18 19 20 19 18 17 15 14 12 11 10 9 8 8 7 6 6 5 5 5 5 4 4 4 3 3 2 2 3 4 4 5 5 5 6 6 7 7 7 7 7 7 8 8 8 8 8 8 8 8
18 16 18 21 21 21 22 22 23 23 24 24 26 28 30 30 25 21 18 17 16 16 16 16 15 12 17 22 19 19 18 15 15 16 17 17 17 16 14 14 13 13 14 13 13 13 15 18 19 19 18 18 17 15 14 13 12 11 10 9 9 8 7 7 6 6 5 5 5 5 4 4 3 2 2 3 3 4 4 4 4 4 4 5 5 6 5 5 5 6 6 6 7 7 6 7 6
18 17 19 21 21 22 23 23 22 22 23 23 24 22 21 23 21 19 17 15 15 16 14 13 14 17 21 22 20 20 17 15 17 17 17 18 17 16 15 14 14 15 15 15 14 14 16 18 19 19 18 17 17 15 15 14 13 12 11 10 10 9 8 7 6 6 6 6 6 5 5 4 3 2 2 3 3 3 3 3 3 3 3 3 4 4 4 3 3 4 4 5 5 5 5 5 5
18 17 18 21 22 22 23 23 22 22 21 18 19 17 16 19 19 18 16 15 14 13 13 12 14 19 23 25 25 21 16 16 19 18 17 17 16 15 15 16 16 16 16 15 15 15 17 19 19 19 18 18 17 16 15 14 13 12 12 11 11 10 9 8 7 7 6 6 6 5 5 4 4 3 3 3 3 3 3 2 2 2 1 1 2 2 2 1 1 1 2 2 3 3 3 3 3
18 17 19 22 23 23 22 21 21 23 21 14 13 14 14 16 22 21 17 17 17 14 13 13 15 18 20 23 24 20 18 19 20 19 17 16 15 16 16 16 17 17 16 16 15 16 18 20 20 19 19 19 18 17 16 15 14 13 13 12 11 10 9 8 8 8 7 6 6 5 5 5 4 3 3 3 3 4 3 2 1 0 1 1 0 0 0 1 1 2 2 1 1 1 1 1 1
17 19 21 23 24 24 22 20 20 21 20 18 16 14 14 13 16 17 15 16 17 15 12 12 14 18 17 19 22 20 20 21 21 20 18 17 16 17 17 17 18 18 18 17 16 17 19 20 20 20 20 20 19 18 17 15 15 14 14 13 12 11 10 9 9 8 7 7 6 6 5 5 5 4 4 4 4 4 4 3 2 2 2 2 2 2 2 2 2 3 4 4 3 3 3 3 2
19 21 24 26 25 25 23 22 21 17 15 19 23 19 15 14 12 10 12 13 16 16 12 12 15 19 19 20 20 19 21 22 23 20 18 18 17 18 18 18 19 18 18 17 17 18 20 20 21 21 21 21 20 18 17 16 15 15 15 14 13 12 11 10 9 9 8 7 7 6 6 5 5 4 4 4 4 4 3 3 3 3 4 4 4 4 4 4 4 5 5 6 6 6 6 6 6
24 23 24 28 26 24 22 21 22 20 16 14 14 13 11 13 12 9 8 10 14 16 14 16 20 23 24 23 20 18 20 22 23 20 18 18 17 17 18 19 19 17 17 18 18 19 20 21 22 22 22 21 20 18 17 17 17 17 16 15 14 13 12 11 10 9 8 8 7 7 6 5 5 5 4 4 3 3 3 3 3 4 5 5 6 6 6 6 6 7 7 8 8 9 9 8 9
26 25 26 28 26 23 22 22 22 21 18 10 4 6 11 12 12 11 10 11 13 15 16 19 26 27 27 26 24 22 21 22 22 19 20 19 17 17 18 18 18 17 18 18 19 20 21 21 22 22 21 20 19 19 18 18 18 18 16 15 14 13 12 11 10 10 9 8 7 6 5 4 5 5 4 3 3 2 3 4 4 5 6 7 7 8 8 8 8 8 9 10 11 11 11 12 12
24 28 30 25 21 23 23 23 23 20 18 12 5 4 8 11 13 14 13 15 15 16 16 20 29 30 28 28 26 26 24 24 23 20 21 20 18 18 18 18 17 17 17 18 19 19 20 21 21 21 20 20 19 19 18 18 19 18 17 16 15 14 13 12 11 10 9 8 7 6 4 4 4 4 4 3 2 2 3 4 4 5 6 7 8 9 9 9 9 10 10 11 12 13 14 14 15
23 27 30 26 21 22 21 21 22 20 20 19 15 10 8 9 12 14 15 17 15 14 14 19 29 29 27 27 26 27 26 26 24 22 22 20 20 19 19 19 17 17 17 18 18 19 20 20 19 19 19 19 19 20 19 19 19 18 18 17 16 15 14 13 12 11 10 9 8 6 5 4 3 2 2 3 3 3 4 4 5 5 6 6 7 8 8 9 10 10 10 11 13 14 15 15 16
25 25 26 26 25 25 22 18 18 19 20 21 21 18 14 12 12 14 16 18 16 13 11 16 28 30 27 26 25 26 27 27 25 23 23 22 22 21 20 20 19 18 18 18 18 18 19 19 18 18 18 18 19 20 20 20 20 19 18 17 16 15 14 14 12 12 11 10 8 7 5 4 2 2 3 4 4 5 5 6 6 6 7 7 8 8 8 9 9 9 9 11 12 13 14 15 16
28 26 24 23 24 27 26 19 15 17 19 22 21 18 17 17 17 18 17 18 18 16 12 14 25 32 28 25 24 24 24 26 25 24 24 22 22 21 21 21 20 20 19 19 19 19 19 19 18 18 18 18 19 20 20 21 20 19 18 16 16 15 14 13 12 11 10 10 9 7 5 4 2 2 4 5 6 7 7 8 8 8 8 8 9 9 9 9 9 9 10 10 11 12 13 14 15
28 28 24 22 22 24 26 23 19 16 18 21 22 20 18 19 18 19 18 17 18 17 16 16 21 27 27 25 26 25 25 25 25 25 24 23 22 22 22 21 21 21 21 20 20 20 19 18 18 19 19 19 19 20 20 21 20 19 18 17 16 15 14 12 11 10 10 10 8 7 5 3 3 3 5 6 7 8 8 9 9 9 9 9 9 9 9 9 9 10 10 11 11 12 13 14 15
27 27 25 24 23 22 22 24 24 20 18 18 20 21 20 19 19 21 20 17 15 15 20 21 23 27 25 26 28 28 29 27 27 26 25 24 23 23 23 23 23 23 22 21 21 20 20 20 20 20 20 19 19 19 21 20 20 19 17 17 16 15 14 12 11 10 10 9 8 7 6 4 4 4 5 6 7 8 8 9 9 9 9 9 8 9 9 9 9 10 10 11 11 12 12 13 14
22 23 25 26 26 24 21 22 24 24 22 20 19 19 20 20 21 24 22 19 17 16 22 26 26 26 23 25 28 31 31 29 29 28 27 26 25 24 24 24 25 25 24 23 22 21 20 20 20 20 20 20 18 19 21 20 19 18 17 17 15 15 14 11 11 11 10 9 8 7 6 5 5 5 6 6 6 6 7 7 8 8 8 8 8 8 8 9 9 9 9 10 11 11 12 13 13
22 22 22 24 26 27 26 23 23 23 23 23 22 21 20 20 24 26 22 20 21 20 24 29 29 27 24 25 28 32 32 29 30 30 29 28 26 25 25 26 27 27 25 24 23 21 20 20 19 20 20 19 19 20 20 20 19 18 18 17 15 16 13 11 12 11 10 9 8 8 6 6 5 6 7 6 6 6 6 6 6 6 7 7 7 7 7 8 8 8 9 10 10 10 11 12 12
24 24 22 21 22 27 30 27 24 23 24 21 20 22 24 25 26 26 23 21 22 23 26 30 31 30 28 27 29 32 31 31 32 31 29 28 27 27 26 27 28 27 26 24 23 21 21 20 19 20 20 19 20 20 20 19 19 18 18 17 16 16 13 12 13 11 10 9 8 8 7 7 6 6 7 6 6 6 5 5 4 4 4 4 5 6 6 7 7 8 9 10 10 10 10 11 12
25 25 24 23 23 27 30 29 27 24 24 21 18 23 26 27 26 25 23 21 21 24 27 29 31 30 30 32 32 32 32 33 33 30 29 29 29 29 28 27 28 28 26 25 23 22 22 21 20 21 20 20 20 20 19 19 18 18 17 16 16 14 13 13 13 11 10 9 9 8 8 7 6 6 6 5 4 4 4 4 3 4 3 4 5 6 7 8 9 9 10 11 11 12 12 12 12
22 24 25 25 26 28 26 27 30 28 25 21 21 25 25 23 24 26 26 22 20 24 28 28 29 29 29 32 33 32 33 33 33 30 29 30 30 30 29 28 29 28 27 26 23 23 23 21 21 21 20 20 20 19 19 19 18 17 16 15 14 13 14 14 12 11 10 10 10 9 8 7 6 6 5 4 3 3 3 3 3 3 4 5 6 7 8 9 10 10 11 12 13 13 13 13 13
20 24 27 28 27 26 22 24 30 31 27 22 24 27 25 22 21 24 28 26 25 26 27 28 31 31 29 31 32 32 34 33 31 30 31 31 30 31 31 30 30 29 28 26 25 24 24 23 22 21 20 20 19 18 19 18 17 16 15 13 13 14 14 13 11 11 11 10 9 8 7 7 6 5 4 3 3 3 2 3 3 4 4 5 6 7 8 8 9 10 11 12 13 14 14 15 15
24 27 28 26 26 24 21 22 27 30 28 25 28 28 25 23 22 24 27 27 29 29 28 30 34 32 29 31 33 34 34 33 33 33 33 33 33 33 32 31 31 30 29 27 25 25 24 23 22 20 20 20 18 18 18 17 16 15 14 12 13 14 13 12 11 11 11 10 8 7 7 6 5 4 3 4 3 3 2 3 4 5 6 6 7 7 8 8 9 10 11 13 13 14 15 16 17
26 27 26 23 23 23 22 23 25 29 30 27 29 30 26 24 24 26 27 28 29 30 30 33 36 33 30 33 35 36 36 35 36 35 35 35 36 35 33 33 33 32 30 27 25 25 25 23 21 21 21 19 18 19 18 17 17 16 14 14 14 14 13 12 12 12 10 9 8 7 7 6 5 4 4 4 3 2 3 4 5 6 7 7 8 9 9 10 10 11 12 13 15 15 16 17 17
24 24 23 23 23 23 23 24 24 28 30 28 27 30 29 27 27 28 28 29 30 31 33 34 36 35 34 34 33 35 36 36 36 35 36 38 38 36 33 32 33 33 30 28 27 25 25 23 21 21 20 20 19 19 19 18 18 18 17 17 17 15 14 13 13 12 10 9 8 7 6 6 6 5 4 3 3 4 4 5 6 7 8 9 10 10 11 12 13 13 14 15 16 16 16 16 15
21 22 22 22 23 25 24 24 23 27 28 28 27 28 28 29 30 28 27 29 31 31 32 33 34 36 34 34 33 33 35 37 37 36 38 39 38 35 34 32 31 31 30 28 27 26 24 22 21 23 22 21 21 20 19 18 18 18 17 18 17 16 16 15 13 11 10 9 8 7 7 7 7 6 5 4 4 5 6 7 8 8 9 10 11 12 12 13 14 15 16 16 16 16 15 14 14
21 22 22 22 23 24 24 23 23 26 26 27 27 27 27 29 30 27 23 28 29 29 30 31 33 33 32 31 31 34 36 36 35 36 38 37 36 33 32 32 31 31 31 29 27 25 24 23 23 24 22 19 19 18 18 17 18 18 17 16 16 16 17 16 13 11 10 10 8 9 9 8 7 6 5 5 5 7 8 9 10 11 11 11 11 12 12 14 15 16 17 17 17 15 15 14 15
25 23 22 23 23 23 24 24 25 26 25 23 25 28 28 29 31 28 24 27 28 29 30 30 32 34 35 33 31 34 36 35 35 38 38 33 31 29 27 29 32 31 29 28 28 26 25 24 22 21 18 17 17 17 17 16 17 17 15 15 14 14 15 17 16 13 11 11 11 11 10 9 8 7 6 6 7 8 10 11 11 12 12 12 12 12 13 14 15 17 17 17 16 15 15 14 15
30 26 23 24 22 21 25 26 26 25 22 19 22 27 29 28 31 29 24 25 28 30 31 31 33 34 36 35 33 34 35 37 39 39 35 29 26 25 25 26 29 27 23 24 25 24 22 21 20 19 17 16 15 16 16 16 16 15 13 13 13 13 14 15 16 15 13 12 12 11 10 9 8 7 7 7 8 10 11 12 12 13 12 12 12 13 14 15 16 17 16 16 16 16 15 15 16
30 29 26 24 20 21 24 22 22 21 18 17 19 22 26 26 28 30 26 24 26 28 27 29 32 33 33 32 32 35 39 40 38 33 26 24 25 24 25 25 23 21 18 19 18 18 19 18 18 18 16 15 15 15 16 17 16 16 14 13 13 13 13 15 14 15 15 14 13 11 10 9 8 8 8 8 10 11 12 12 12 13 12 12 13 14 15 16 17 17 15 15 16 16 16 16 17
30 31 28 24 20 22 23 21 23 21 17 17 18 19 24 26 27 29 28 25 25 26 26 28 31 32 31 31 34 38 40 37 34 28 22 23 25 21 23 24 20 20 19 18 16 17 18 17 16 15 14 14 14 14 15 15 16 16 16 14 13 12 13 15 12 14 14 13 13 12 10 9 9 8 9 10 11 12 12 13 13 13 13 13 14 15 16 16 16 16 15 16 16 17 18 17 18
29 31 30 25 21 21 22 22 24 22 17 17 19 16 17 26 29 28 29 27 25 26 28 29 28 29 31 32 38 43 40 34 31 28 23 23 26 23 23 22 18 20 23 19 17 20 19 18 16 13 12 12 13 15 13 12 14 14 14 14 12 11 14 14 11 12 13 13 12 12 10 10 9 9 9 10 12 13 13 13 13 13 14 14 15 16 16 15 14 15 15 16 18 19 19 18 19
28 28 29 27 23 20 21 24 24 22 17 17 21 19 14 20 29 29 30 29 27 27 27 29 27 27 30 33 39 42 39 34 30 27 22 17 22 26 23 20 17 18 22 21 21 21 18 16 15 12 12 12 14 14 12 10 12 13 14 15 14 13 15 14 11 11 13 12 12 11 10 10 10 9 10 11 12 12 13 13 13 14 15 16 17 16 15 14 13 14 15 17 18 19 20 20 20
27 24 25 29 28 24 22 25 25 22 18 17 23 27 20 18 24 27 29 30 29 28 27 28 27 24 28 34 35 32 32 34 32 30 26 15 13 21 17 15 18 19 19 19 17 13 12 11 12 13 13 12 13 13 12 12 13 15 16 17 18 18 18 16 13 13 13 12 12 11 11 11 10 9 9 11 12 12 12 13 14 15 16 17 16 15 13 12 13 13 15 16 17 18 19 20 21
25 21 22 28 28 22 20 22 24 23 18 16 23 27 20 18 22 23 27 31 30 28 28 29 28 25 29 32 32 29 30 33 30 26 24 13 8 14 11 10 17 18 16 16 13 10 10 10 12 13 13 13 14 14 14 14 15 16 18 20 21 22 22 19 16 16 15 14 13 12 12 11 10 10 10 12 12 12 13 13 15 16 16 15 14 13 12 12 13 14 15 16 16 17 19 20 21
25 20 18 24 26 23 20 17 21 22 16 16 21 25 18 17 23 23 24 30 31 27 26 27 25 24 27 27 25 27 29 28 25 20 18 15 12 12 9 9 11 14 15 15 14 13 12 11 12 13 13 14 15 15 16 16 17 18 20 22 23 23 23 20 18 18 17 15 14 13 11 10 11 11 11 12 12 13 13 15 15 15 15 13 13 13 13 14 14 15 15 16 17 17 19 20 22
25 23 20 22 24 26 25 20 20 15 12 19 26 26 21 14 20 27 26 28 30 28 25 24 23 23 26 24 20 20 22 24 23 20 17 17 18 17 13 12 13 17 20 17 16 16 15 15 14 12 13 15 16 17 17 18 19 19 22 24 22 22 23 19 18 18 17 16 15 12 11 11 12 13 13 13 13 14 15 16 16 15 13 12 13 13 14 14 15 15 16 16 17 18 19 21 22
25 24 23 22 21 23 23 22 19 10 9 23 29 30 25 16 17 25 29 28 26 26 25 25 29 31 29 24 20 18 18 21 22 22 20 19 19 19 15 12 16 21 24 19 17 19 19 19 16 13 13 15 17 18 18 18 18 19 21 21 20 22 22 18 16 17 17 15 13 10 10 12 13 14 14 14 15 16 17 17 16 15 13 13 13 14 14 15 15 16 17 17 18 19 20 21 22
28 27 26 20 15 14 15 14 14 11 13 20 26 28 24 20 23 25 25 25 24 25 25 26 31 34 31 26 22 19 18 19 22 22 21 19 18 17 13 10 11 16 19 17 19 22 22 21 19 16 13 14 16 17 16 16 16 17 19 21 22 23 22 17 16 16 16 13 11 10 11 12 14 15 15 16 16 17 18 17 16 15 14 14 14 15 15 15 16 16 17 18 19 20 21 21 22
31 32 29 20 11 8 9 9 9 11 17 19 22 23 19 21 25 24 24 24 22 22 24 23 27 30 28 26 24 20 17 17 19 20 18 17 18 15 13 14 13 13 15 17 20 22 20 19 20 18 15 14 15 15 15 15 16 18 20 22 23 23 22 18 16 16 14 12 12 11 11 13 15 16 16 16 17 18 18 17 16 15 15 15 16 16 16 16 17 18 18 19 20 20 21 22 22
31 31 27 22 18 12 8 9 8 9 13 18 19 17 16 21 19 15 20 26 21 18 20 18 22 28 26 24 22 18 16 16 16 17 16 16 17 15 15 17 16 15 17 20 21 20 17 16 18 18 17 17 15 14 16 16 17 18 19 21 20 21 23 17 14 15 14 12 13 12 12 14 16 16 16 16 18 18 18 17 16 15 15 16 17 17 18 18 19 19 19 20 20 21 22 22 22
28 30 26 26 27 20 11 11 12 9 7 13 18 17 16 20 21 15 15 22 21 16 18 19 23 30 28 23 21 18 18 18 17 17 16 15 16 16 18 21 20 19 21 22 21 20 17 15 17 18 18 18 15 14 17 18 19 19 19 20 20 20 21 15 12 14 13 13 13 13 13 15 16 16 16 17 18 19 18 17 16 16 16 17 18 19 19 20 20 20 20 20 20 21 21 22 21
26 29 30 29 27 22 14 12 15 12 6 8 17 20 18 16 21 24 18 19 21 14 13 18 23 28 28 24 22 21 20 19 19 19 17 16 17 16 19 23 23 20 21 23 22 20 17 16 18 18 18 18 16 16 18 20 22 22 21 21 21 20 18 13 12 14 13 14 14 14 15 15 16 16 16 18 19 19 18 16 16 16 17 18 19 20 20 20 21 20 21 21 21 21 22 22 21
25 29 30 26 23 23 19 12 10 10 6 9 16 21 22 16 16 23 24 22 21 16 13 13 18 23 24 24 24 23 23 23 22 21 18 17 17 17 19 25 24 20 22 25 25 23 20 19 20 19 18 19 20 20 20 21 22 22 21 22 21 20 17 15 14 15 15 15 15 15 15 15 16 16 17 18 19 19 17 16 16 16 17 18 19 20 20 20 20 20 20 21 21 22 22 22 22
27 26 25 25 22 23 24 14 8 9 6 7 14 19 21 21 17 18 22 22 19 21 20 16 18 21 20 21 23 23 24 26 23 22 21 19 19 19 21 25 23 20 24 27 26 25 23 22 22 21 21 22 22 22 21 21 22 22 21 21 22 21 19 17 17 17 16 16 16 15 16 16 16 16 17 18 19 18 17 16 16 16 17 18 19 19 20 19 20 20 20 21 22 22 23 23 23
31 26 26 30 26 22 25 19 12 11 7 5 12 13 14 21 23 17 20 24 20 18 21 18 18 19 18 20 22 23 25 26 24 23 23 23 23 22 22 24 23 21 24 27 26 26 24 23 23 22 23 23 22 22 22 22 23 21 20 21 23 22 20 18 18 18 17 17 16 16 16 16 17 17 17 18 19 18 17 16 16 16 18 18 19 19 19 19 20 20 21 22 23 24 24 23 24
32 29 29 32 29 24 23 21 20 17 8 5 7 8 12 19 22 19 19 25 24 18 19 19 18 19 21 23 24 23 24 25 24 23 23 25 26 24 24 25 25 25 27 28 28 27 25 24 24 23 23 22 22 22 23 24 24 22 20 20 21 21 20 19 19 19 18 17 17 17 17 17 17 17 18 18 19 18 17 16 16 17 18 19 19 19 20 20 21 21 22 23 24 24 25 24 24
30 28 28 30 30 27 18 14 23 23 14 10 8 6 13 17 19 22 23 25 27 24 21 20 21 22 22 23 24 25 25 25 25 23 23 25 27 26 25 26 27 28 29 30 29 27 26 25 24 24 24 22 20 21 23 25 26 22 19 18 18 19 20 20 20 19 18 17 17 17 17 17 18 18 18 18 19 18 16 16 17 18 19 19 20 20 20 21 21 22 23 24 24 25 25 24 24
Wind_Direction
267 268 269 270 271 272 273 275 273 261 252 254 255 259 259 260 259 260 263 263 262 271 280 260 257 258 261 264 255 316 306 292 295 281 280 273 258 256 257 266 249 218 215 218 215 214 214 211 206 204 207 206 201 202 203 198 185 176 169 138 97 69 53 46 44 41 41 40 39 44 48 47 46 46 48 52 54 55 58 61 61 60 60 60 59 59 62 65 69 72 76 80 82 83 82 81 79
264 264 265 266 267 266 269 268 259 255 252 254 254 254 257 258 255 254 254 257 255 260 262 221 208 227 252 259 253 288 286 279 280 270 276 267 252 255 259 263 241 218 212 214 214 214 214 211 207 203 205 207 203 203 204 203 193 184 175 159 115 76 55 47 44 43 42 41 42 45 51 48 46 46 48 52 55 57 59 61 61 61 60 60 60 59 61 64 67 70 74 78 82 83 83 82 79
260 261 261 261 262 262 260 250 242 251 252 253 256 253 256 255 253 253 251 254 252 244 217 190 201 238 261 273 284 288 271 270 271 264 270 271 261 256 256 256 235 215 210 207 212 214 213 211 208 204 205 208 206 205 205 206 199 189 182 176 135 85 60 48 46 47 47 45 45 48 52 50 48 46 49 55 58 59 60 61 61 62 60 61 61 60 62 64 67 69 72 77 81 82 83 82 79
258 257 257 255 256 258 257 246 237 245 250 253 256 253 255 253 251 250 246 240 229 206 166 177 231 252 268 271 286 285 276 273 267 265 265 267 261 255 250 250 245 221 209 204 212 212 212 210 208 206 205 208 208 206 205 207 203 194 189 184 155 102 71 54 51 52 53 51 48 50 56 52 49 49 52 57 60 62 61 62 63 63 61 61 61 61 64 67 70 71 73 77 81 83 83 80 78
256 252 251 248 237 242 253 248 238 239 244 249 254 255 252 253 259 255 243 216 203 220 224 239 262 269 281 268 259 257 274 276 263 265 265 264 258 254 248 247 249 227 210 206 211 212 213 208 207 208 205 209 209 207 206 208 205 198 196 190 168 129 93 69 64 61 58 57 55 54 59 56 51 51 56 59 62 64 63 63 64 64 64 63 63 64 66 70 73 74 78 80 84 86 84 82 79
253 248 244 239 223 222 238 242 236 237 240 244 250 255 254 257 272 272 273 258 236 260 260 261 267 262 272 274 268 243 245 266 263 266 267 266 259 250 246 246 245 229 216 210 212 216 213 207 207 207 206 209 210 208 207 208 207 202 200 194 177 156 144 120 84 71 67 65 63 63 65 60 54 54 59 62 65 66 65 65 65 66 67 66 66 67 69 72 76 78 80 82 84 85 85 84 82
245 238 239 239 226 223 232 239 237 239 241 242 246 251 256 259 274 271 265 263 257 273 271 265 256 244 252 260 261 239 240 261 262 267 268 261 259 248 241 244 240 223 212 212 216 219 215 208 206 207 207 209 210 208 207 209 209 206 204 199 187 175 168 143 110 85 78 76 72 72 75 66 57 58 63 66 69 70 68 66 66 69 69 69 70 70 71 74 78 81 81 83 85 86 86 85 85
241 224 217 236 231 229 233 239 239 241 243 242 246 248 253 256 258 251 238 239 248 275 276 263 239 229 242 241 245 249 256 267 264 269 265 248 254 246 235 238 233 214 210 216 221 223 218 209 205 206 206 209 211 209 208 210 211 210 208 205 195 184 176 155 128 100 92 86 85 88 85 75 62 61 69 72 73 73 69 68 67 70 72 72 73 73 74 77 81 83 85 87 88 88 88 88 87
236 216 198 223 233 235 237 240 242 243 245 245 247 246 249 252 246 232 219 235 239 237 239 247 246 236 248 245 241 250 258 269 272 271 255 235 250 243 230 232 225 212 214 219 222 226 222 211 205 205 206 209 211 210 211 211 213 211 209 208 199 192 178 160 141 112 108 102 101 100 94 81 68 67 75 78 77 75 71 69 69 71 75 75 75 74 75 78 83 86 89 89 91 92 91 90 89
224 219 201 220 233 237 240 241 243 245 246 245 246 246 248 248 244 242 245 255 245 238 243 245 247 240 255 254 239 245 259 272 272 262 241 231 246 237 227 228 218 214 219 221 224 227 224 213 206 204 205 209 211 212 212 212 212 210 211 209 201 193 180 163 146 126 120 117 115 110 104 90 75 72 80 84 78 76 73 70 72 74 76 78 77 75 76 79 84 87 91 92 93 94 94 93 91
215 223 208 222 234 236 241 243 245 246 247 245 245 244 244 244 244 246 249 254 246 243 246 241 243 233 241 252 240 246 263 270 263 243 225 228 240 235 226 225 216 216 222 224 226 230 225 214 207 205 206 209 212 213 212 212 211 211 212 208 201 192 179 167 149 137 133 127 123 120 113 100 89 81 82 88 82 79 77 74 74 77 78 79 80 77 77 79 84 87 89 91 92 93 94 95 94
209 221 213 225 233 236 242 245 249 249 249 246 242 243 243 241 238 239 244 250 252 253 249 238 241 230 231 241 235 245 256 261 254 227 215 225 235 231 224 222 218 217 222 224 226 229 223 211 207 207 208 210 213 214 212 212 212 213 214 207 200 191 179 168 154 146 143 138 131 128 126 116 104 92 93 94 89 84 78 77 74 79 82 81 83 81 79 80 83 87 87 87 88 90 90 91 91
206 215 218 229 235 239 246 248 251 252 252 248 244 247 242 233 227 230 243 252 251 251 249 239 238 226 225 234 234 243 248 252 247 222 214 222 227 225 221 219 216 218 221 224 225 224 217 207 206 209 211 214 216 215 213 214 215 215 214 207 199 190 180 169 158 155 152 146 141 138 137 133 123 106 114 110 102 95 83 80 75 78 83 85 88 84 82 82 85 89 89 87 85 86 84 85 85
210 213 224 236 240 242 247 249 252 251 252 251 252 250 234 223 218 224 237 248 248 245 245 238 233 226 227 235 238 241 242 244 236 224 220 219 220 219 220 219 216 220 223 225 223 218 212 206 206 209 213 216 218 216 216 217 216 216 213 205 199 190 180 172 162 161 162 153 148 149 147 145 139 130 133 131 122 111 97 85 78 78 82 89 94 91 84 78 84 89 90 87 83 82 82 82 81
216 216 232 242 244 243 242 245 249 251 254 252 252 245 225 217 216 223 232 237 242 241 238 232 224 225 233 238 240 241 239 238 229 224 220 213 215 216 218 219 217 221 223 224 221 214 208 206 208 210 213 217 218 218 219 219 216 214 211 205 199 192 181 174 167 168 167 158 155 154 155 155 153 154 156 154 145 133 122 106 79 68 69 83 99 98 86 65 54 60 77 81 77 72 77 85 85
221 219 234 242 242 243 242 242 243 248 252 254 253 231 205 213 225 229 231 237 245 242 240 244 230 228 243 245 244 244 237 234 227 221 217 212 215 214 214 217 218 221 222 221 217 212 207 207 209 211 215 218 219 218 218 219 216 213 209 205 200 192 183 177 175 175 170 162 162 159 160 164 166 168 168 174 167 156 153 149 139 13 323 330 307 254 356 318 330 326 321 343 5 23 33 62 87
223 223 232 238 238 238 240 240 240 243 246 252 258 233 201 213 227 227 236 246 248 242 235 242 227 218 234 242 243 241 234 232 224 219 217 215 215 212 213 218 220 219 219 219 216 213 210 210 211 213 217 219 219 219 219 217 214 212 208 205 200 192 185 183 181 177 173 170 168 165 169 170 171 171 166 175 182 181 178 176 192 224 248 275 283 278 282 280 286 292 292 293 290 287 285 286 281
219 223 230 234 234 234 236 239 244 248 248 247 251 244 223 218 221 229 248 245 237 235 220 223 222 209 214 228 232 230 230 229 221 218 216 213 214 217 220 223 223 220 219 220 217 216 217 215 214 217 220 221 221 221 220 217 213 211 208 206 202 196 189 188 186 182 179 176 175 173 176 175 169 169 167 173 188 202 205 206 217 226 235 247 262 270 273 276 278 279 281 282 284 282 277 280 279
217 221 229 233 232 233 236 240 244 247 253 248 236 230 212 209 220 227 238 234 233 235 215 217 230 219 216 225 224 223 225 220 217 215 211 211 215 220 225 226 224 222 222 222 220 219 220 218 217 221 223 223 224 223 220 215 212 212 210 207 205 199 194 192 188 188 185 181 183 182 180 174 170 175 174 176 190 212 230 235 239 240 241 243 249 257 264 271 277 281 282 282 281 281 280 278 277
218 221 230 234 233 235 239 240 241 244 252 257 231 206 203 208 223 223 228 240 237 235 219 214 229 227 221 223 224 226 220 212 214 209 204 209 216 220 225 226 225 225 224 222 221 221 221 220 221 223 222 224 225 221 218 214 212 212 210 207 204 200 196 195 193 191 188 187 190 189 190 178 177 181 178 184 194 220 243 248 251 249 246 245 245 248 254 260 267 274 279 282 282 280 281 280 280
219 222 229 234 234 238 240 240 243 247 247 249 263 238 221 219 227 232 236 247 242 236 226 216 230 232 224 224 226 227 217 208 211 204 201 209 215 217 218 220 221 223 222 221 221 221 224 224 225 226 223 223 223 219 215 213 213 212 210 207 205 201 199 199 196 194 191 194 196 193 203 197 192 187 180 196 213 239 257 263 266 258 253 251 252 252 253 255 258 264 269 275 279 280 281 282 285
221 226 230 233 235 239 240 242 243 245 242 242 249 249 243 231 234 238 232 240 237 231 233 225 235 236 226 229 228 225 218 211 210 203 201 208 214 215 212 212 211 214 218 221 221 222 226 227 227 228 225 220 218 218 214 213 214 211 211 209 207 206 204 203 199 196 193 196 198 195 206 211 223 232 215 235 255 270 279 285 281 271 269 268 265 261 258 260 263 265 268 271 274 277 278 280 285
224 230 233 235 236 237 239 246 245 241 238 238 246 249 248 243 243 241 235 239 226 222 241 230 236 238 230 232 229 222 217 210 207 202 203 208 213 214 212 211 209 212 216 218 220 223 226 228 228 226 224 220 214 215 214 213 214 211 211 210 209 211 210 210 205 199 195 196 196 196 207 220 245 271 274 284 291 290 291 292 291 286 285 284 279 276 270 268 272 274 273 274 278 279 281 283 287
226 232 233 235 238 237 238 248 250 241 234 232 239 247 247 246 248 243 241 244 228 225 243 233 236 236 227 230 231 222 211 207 206 204 206 209 212 213 211 209 208 212 215 214 218 222 224 225 227 225 223 218 213 214 215 214 214 212 212 211 211 212 214 214 208 201 196 195 194 194 205 221 247 275 285 298 300 296 295 295 294 292 288 287 287 289 292 288 286 288 286 285 287 288 289 291 292
228 232 234 235 238 239 241 243 244 242 238 235 237 243 245 242 242 241 239 245 236 230 240 232 222 218 217 227 232 221 209 209 209 205 206 208 211 212 208 207 206 210 214 213 217 221 222 223 223 223 221 219 215 213 216 216 215 215 213 212 213 213 216 215 208 204 200 196 193 194 201 216 248 273 286 294 298 298 300 298 295 296 294 292 295 297 301 301 299 299 297 295 294 294 293 292 292
229 232 236 237 237 238 241 240 239 240 240 241 242 243 242 235 236 238 234 236 234 228 236 230 213 208 209 221 227 218 213 216 212 207 206 205 207 209 207 207 207 210 213 213 217 219 218 219 221 221 219 221 218 213 218 218 215 216 213 212 212 213 216 213 209 207 205 201 194 198 205 216 243 268 284 289 295 298 299 300 301 302 299 295 295 298 300 301 302 303 303 300 297 297 296 294 294
232 234 237 238 237 236 239 239 236 236 237 240 243 244 241 236 236 238 234 230 224 221 232 233 226 219 206 210 219 215 214 219 216 209 204 201 204 207 208 209 207 210 214 216 218 218 217 218 220 219 218 221 219 215 218 219 216 214 213 211 208 212 214 209 210 209 207 205 200 208 215 223 243 264 278 285 289 291 293 299 304 302 298 296 295 299 301 298 300 304 304 301 299 301 300 299 300
235 237 240 239 237 237 237 238 235 234 237 238 241 246 244 237 234 235 234 229 225 223 231 236 236 229 212 210 215 212 214 218 217 211 204 201 204 207 210 211 210 212 216 219 219 217 217 219 220 218 219 221 218 216 219 219 216 212 213 212 206 210 210 204 210 210 209 210 209 216 225 234 245 260 269 276 277 278 286 292 295 294 292 295 299 303 301 298 302 304 302 301 304 306 301 301 303
237 238 241 241 238 238 235 234 234 233 235 235 237 243 241 236 233 233 232 226 227 226 229 237 238 229 222 220 215 211 213 216 216 213 207 205 205 208 212 213 213 216 219 220 219 217 217 219 219 218 219 219 217 217 218 217 214 212 213 210 207 209 203 202 211 211 211 214 218 222 230 241 247 259 265 269 274 274 281 287 285 287 286 289 300 306 302 301 303 303 302 301 304 307 303 304 307
236 235 238 238 238 240 235 230 230 231 233 229 227 237 239 234 231 231 228 224 229 225 219 230 236 229 226 224 215 211 213 215 215 212 208 206 207 209 213 214 215 219 221 221 218 215 217 219 217 219 219 217 217 217 215 215 213 211 212 209 208 207 201 206 211 211 213 216 222 226 230 242 249 258 264 265 267 264 271 279 274 282 293 297 303 308 308 307 305 305 305 303 304 308 309 309 310
233 232 233 233 236 240 235 228 226 227 230 223 220 236 241 237 233 227 224 222 223 218 209 219 230 222 218 219 214 210 212 214 214 210 208 209 209 211 213 215 216 219 222 222 218 214 215 216 216 219 218 216 217 215 213 212 210 210 211 210 208 204 204 210 211 211 214 218 223 226 231 244 251 254 257 254 250 238 242 252 256 273 288 296 303 306 308 306 306 305 304 303 304 308 309 308 308
228 226 228 228 232 239 236 226 223 222 225 219 218 235 241 238 236 226 224 223 217 216 212 216 222 214 213 220 217 212 212 213 214 210 209 211 211 211 213 215 216 220 222 220 216 214 214 214 216 217 215 216 216 212 211 209 206 207 210 208 205 204 207 209 208 211 214 218 224 229 235 242 247 247 234 221 219 205 218 245 264 280 286 294 303 304 306 307 308 307 304 303 304 305 306 305 304
223 223 225 225 227 236 238 230 224 219 220 218 218 230 239 238 235 227 226 224 217 217 218 219 221 217 214 217 215 211 211 212 214 213 211 211 212 213 215 216 216 218 220 218 215 214 214 214 214 213 213 215 212 210 209 205 202 207 207 203 203 206 209 207 207 211 215 218 224 230 235 235 235 230 200 186 188 198 231 265 281 291 296 303 307 308 311 313 312 311 308 307 307 307 306 304 302
217 220 225 228 228 233 234 233 227 216 214 217 221 228 235 239 237 230 225 221 216 215 218 221 222 223 216 210 211 209 209 213 214 214 214 213 214 215 214 213 213 216 217 217 214 212 213 215 211 209 211 211 209 209 206 201 203 208 206 201 203 206 206 204 204 208 211 217 224 227 224 220 213 199 183 182 197 230 261 284 298 303 306 310 311 311 311 310 312 312 310 310 309 309 307 306 303
213 214 219 226 232 234 230 234 228 209 208 215 221 226 232 240 235 231 229 217 212 214 219 223 222 226 221 211 214 211 208 215 216 216 218 217 216 213 209 206 206 211 215 215 214 211 211 213 209 208 209 205 205 205 201 202 206 208 206 200 200 202 201 201 202 203 205 211 219 219 203 194 190 186 192 204 232 260 278 295 307 310 310 312 311 310 309 310 314 315 315 313 312 312 311 310 307
214 213 218 222 229 235 230 235 226 200 203 215 221 225 229 238 229 229 234 212 206 218 222 225 226 230 225 211 214 215 212 216 216 219 221 220 219 213 205 201 202 208 213 213 212 210 209 208 207 207 205 203 206 206 205 210 217 218 216 208 199 196 194 195 197 196 198 205 208 197 182 182 188 195 208 228 251 272 290 302 311 313 315 316 314 312 311 312 314 316 319 318 317 316 316 315 310
219 218 222 223 226 234 229 232 224 196 199 215 222 226 229 235 229 228 229 201 202 224 225 224 226 228 224 214 213 216 217 219 218 221 222 220 221 213 201 196 198 205 210 211 210 207 206 206 208 210 210 214 219 221 219 222 230 233 232 225 210 198 189 184 187 191 193 194 189 180 180 186 196 209 223 243 265 284 296 304 310 313 316 317 315 313 311 312 314 318 320 319 318 316 316 315 311
228 229 229 228 226 232 227 227 225 201 198 218 223 226 228 232 234 235 225 202 207 224 227 228 226 225 228 226 221 217 220 222 221 223 222 218 216 209 199 196 197 198 200 204 205 202 204 208 213 216 217 222 226 226 222 222 231 234 234 233 226 217 201 183 179 183 187 182 178 181 187 196 207 221 239 258 275 286 293 300 307 311 316 315 313 312 311 314 317 319 319 318 317 313 313 312 309
229 236 237 236 226 228 232 228 225 206 197 218 223 223 227 229 237 241 229 212 216 224 230 237 234 232 234 230 223 219 221 221 218 221 219 216 221 213 204 201 195 191 192 198 196 193 202 209 212 215 216 221 224 221 217 220 227 228 229 229 227 228 222 201 179 171 179 178 179 189 197 206 218 232 250 265 277 287 293 300 306 310 315 313 310 312 313 314 315 316 317 315 314 311 309 310 307
226 233 236 240 225 222 230 221 217 211 200 216 224 223 226 228 234 239 233 219 220 225 226 232 237 240 238 230 223 222 224 223 221 222 217 220 232 220 209 207 194 187 198 202 192 190 201 208 211 214 216 221 224 221 219 222 223 219 220 220 218 221 228 222 187 163 174 181 185 198 206 218 230 244 261 275 285 295 301 304 308 310 312 310 308 311 312 312 312 314 314 311 310 307 307 309 305
223 228 231 236 229 224 225 211 209 216 210 215 227 231 226 225 229 232 231 222 221 222 215 222 235 238 237 231 225 226 227 227 229 232 229 228 229 215 210 212 192 188 205 202 194 198 203 208 213 217 218 222 226 224 224 226 223 217 214 212 215 219 226 226 194 163 176 188 194 206 214 227 239 252 270 284 293 301 306 308 311 310 310 309 308 310 311 312 313 313 313 311 310 308 309 312 309
221 226 226 229 234 231 225 217 209 206 210 215 221 236 230 222 226 228 226 222 219 219 216 224 231 231 234 230 223 226 228 227 229 233 237 230 222 220 221 212 184 187 204 200 196 202 201 203 210 216 220 223 225 223 222 225 223 215 208 203 204 211 216 215 192 171 186 198 204 214 223 235 246 259 275 288 297 304 308 310 312 312 311 311 311 312 313 313 313 313 312 313 312 310 311 314 312
219 221 221 223 234 232 220 220 214 202 210 220 218 230 240 223 223 224 224 223 218 218 223 227 227 229 232 224 219 222 224 228 233 237 248 243 221 220 216 197 184 192 202 202 201 202 197 198 207 217 222 223 223 222 223 229 225 212 200 192 187 195 205 202 190 187 197 206 212 222 233 245 255 265 283 296 301 306 310 312 312 313 313 313 314 314 313 312 311 312 312 311 310 309 310 312 312
217 216 213 220 232 235 221 220 224 215 213 227 223 224 238 236 224 218 220 225 221 216 222 226 226 224 221 219 221 221 219 227 235 237 247 260 230 224 210 177 184 194 197 203 207 207 202 204 215 221 226 224 217 216 219 224 221 209 197 191 185 190 196 191 191 200 205 213 222 230 240 252 264 276 292 301 304 308 310 311 312 313 313 313 313 313 311 310 311 312 311 309 308 306 307 308 308
215 212 207 215 229 237 229 225 233 229 217 230 227 215 227 244 230 216 214 223 224 214 214 224 225 210 207 218 225 223 219 223 226 227 237 250 240 236 230 194 190 188 189 198 208 221 220 222 229 227 226 217 207 207 212 215 218 208 197 192 187 191 195 187 190 206 211 219 228 236 244 258 276 289 299 302 306 310 312 313 314 314 313 312 313 314 315 316 317 316 314 311 309 308 307 306 307
211 210 205 211 221 229 232 237 245 237 220 234 231 208 210 236 231 221 212 218 222 215 210 218 219 205 207 221 225 220 220 220 219 215 221 232 240 242 237 230 212 191 189 196 205 218 225 233 242 238 226 213 207 209 210 213 216 208 197 194 190 196 203 189 188 208 215 221 232 242 254 271 285 293 301 307 311 315 316 317 317 317 318 318 319 320 320 320 319 318 315 313 311 310 308 307 308
206 211 210 206 212 224 231 241 251 246 220 229 234 218 209 223 228 223 220 220 217 212 211 208 203 205 214 216 211 213 216 217 216 206 201 216 235 241 234 244 244 212 197 199 209 218 225 229 236 240 229 215 212 213 214 215 217 211 205 200 194 202 210 196 188 208 218 224 234 246 264 282 291 297 308 315 318 320 322 323 324 325 326 324 323 322 321 321 320 319 317 316 313 311 310 309 310
202 208 213 204 200 216 228 231 235 247 227 220 230 232 220 214 223 225 231 232 216 207 214 214 205 206 212 207 202 211 214 212 210 204 200 208 225 233 227 239 250 225 202 200 215 222 224 224 222 228 230 223 217 216 218 218 216 213 209 205 201 205 213 204 190 205 220 227 239 258 277 290 296 304 313 316 319 322 326 329 329 329 328 326 325 324 323 323 322 321 319 317 315 313 311 311 311
200 201 209 206 193 202 216 219 216 232 239 220 224 234 229 221 222 226 234 236 223 209 213 225 219 212 214 215 217 224 220 211 207 205 207 213 222 226 212 207 229 220 200 202 218 221 223 222 217 216 221 227 224 217 218 217 212 214 214 214 209 207 216 210 192 205 222 234 253 273 286 294 300 306 310 313 318 324 329 332 330 329 328 327 328 327 326 325 323 321 319 317 316 314 312 311 311
197 198 205 209 201 192 202 212 208 222 234 228 226 232 238 236 225 220 225 231 234 216 203 217 224 219 222 223 222 225 216 208 211 210 213 219 222 222 208 198 202 203 196 202 212 214 218 220 215 211 212 220 222 215 215 215 215 217 216 215 209 210 221 212 195 212 229 243 263 275 285 294 298 301 307 313 319 326 331 332 329 328 328 328 329 328 327 325 324 322 320 318 317 315 313 312 312
197 200 207 210 209 201 196 208 210 217 226 228 230 230 232 234 224 216 221 226 236 221 199 205 211 211 218 217 214 213 203 201 209 209 211 217 221 219 209 203 200 196 194 199 204 205 210 214 211 211 212 212 213 214 214 212 215 215 213 216 215 221 231 219 202 221 236 249 264 274 284 291 294 299 306 312 319 326 330 330 328 327 328 329 329 328 327 325 324 323 320 319 317 316 315 314 314
199 202 208 210 209 204 199 213 222 229 230 222 227 234 235 233 231 232 227 225 232 225 209 207 200 201 206 205 203 200 195 200 202 200 203 210 216 214 206 202 197 191 194 199 199 198 206 212 206 207 208 203 201 212 214 210 212 212 211 219 222 224 231 223 214 230 242 254 265 274 281 287 293 299 306 312 319 326 329 328 326 326 328 328 328 327 327 326 324 323 321 319 318 317 317 316 315
194 203 209 208 208 207 201 210 224 235 250 221 218 227 232 233 233 232 227 225 225 214 201 201 197 198 198 193 191 189 192 201 201 200 203 211 217 213 204 199 193 191 197 199 196 195 204 207 204 205 205 199 197 206 210 207 207 206 205 209 212 214 220 222 228 241 250 258 266 273 279 286 294 299 305 311 318 324 326 325 323 324 327 328 328 327 326 326 324 322 321 320 319 318 317 316 315
194 204 207 200 203 216 218 209 210 223 242 227 217 221 222 221 227 223 217 218 215 197 190 198 193 187 181 180 183 185 190 197 201 203 202 206 214 216 208 197 191 195 200 197 195 195 197 198 201 207 206 202 202 202 203 201 200 200 199 201 207 215 222 230 239 247 252 258 265 270 278 288 294 299 303 308 316 322 322 320 320 324 327 327 327 326 326 325 324 322 322 321 320 318 316 314 312
202 204 200 194 198 215 223 218 202 207 221 226 222 223 221 217 219 211 202 209 210 193 191 202 195 183 177 180 184 185 190 195 202 208 206 203 211 220 215 199 193 200 201 197 197 196 197 198 201 206 205 203 204 202 201 199 199 200 199 202 212 223 229 236 244 249 253 258 264 270 279 287 292 297 300 305 314 318 316 315 320 324 324 325 326 326 325 324 323 323 323 322 321 318 315 313 311
210 208 196 198 207 215 219 218 213 212 210 216 221 226 223 215 216 211 196 202 208 190 183 193 197 194 196 200 197 193 193 195 201 210 210 208 213 220 215 201 198 203 200 197 198 199 201 202 204 207 206 203 206 209 207 204 202 202 203 211 221 228 233 240 247 251 255 259 265 271 279 286 292 296 297 303 312 312 311 313 318 320 321 324 326 325 324 322 321 323 323 322 321 317 314 313 311
206 205 195 200 212 218 217 215 213 215 216 206 212 230 227 213 214 220 208 202 206 196 182 191 208 215 213 212 213 209 202 198 202 211 215 213 214 214 208 201 201 201 198 197 199 202 204 204 207 208 207 209 214 217 214 207 203 203 209 219 227 233 239 244 249 252 256 261 267 273 281 288 292 293 294 301 307 307 308 312 314 316 319 323 325 324 322 321 321 323 323 322 320 317 315 313 312
200 201 198 201 209 212 211 209 211 215 217 210 211 233 229 215 210 218 218 209 205 202 195 196 212 220 214 209 215 218 215 212 210 215 219 214 210 207 203 202 201 199 199 200 201 204 205 206 208 209 210 214 217 218 217 209 202 204 213 222 231 239 245 247 249 253 257 263 270 276 283 289 290 291 292 298 303 304 306 309 311 315 320 323 324 323 321 320 321 322 322 322 319 317 315 313 311